STARLINK-32486, 61854

Orbit data source: Space-Track

STARLINK-32486, 61854 is a payload satellite owned by SpaceX/Seattle (US) in LEO that was launched on Thu, 07 Nov 2024 UTC via an FALCON 9 launch vehicle from the Air Force Eastern Test Range (AFETR). Payloads include a variety of satellites, spacecraft, and rockets equipped with specific instruments for various scientific and technological missions. These include communications satellites like Starlink; space stations such as the ISS; scientific satellites like the Hubble; Earth observation satellites from companies like Planet Labs, Umbra, and HawkEye 360; GPS; miniature CubeSats for education and research; and military/defense satellites.

Loading next visibility...
STARLINK-32486 details
Identifier
61854, 2024-202K
Orbit
LEO
Last TLE update16 hours ago
Origin
Flag of USSpaceX/Seattle (US)
ManufacturerSpaceX/Seattle
MissionOperational spacecraft
Bus & MotorSTARLINK V2M, Unknown motor
Mass730 kg wet, ~700 kg dry
Launch date (UTC)
2024-11-07 (2 months ago)
Launch vehicle
FALCON 9
Launch site
Air Force Eastern Test Range (AFETR)
Object type
Payload
Rocket body
Debris
Shape & HBRUnknown
Radar Cross SectionLarge (>1 m²)

Expand to show TLE details & history

TLE from 16 hours ago
0 STARLINK-32486
1 61854U 24202K   24361.26425031  .00001580  00000-0  45082-4 0  9990
2 61854  43.0004 202.8521 0002010 269.9823  90.0803 15.40708014  8759
Epoch: 2024-12-26T06:20Z
Definitive object data (Epoch: 2024-12-26T06:20:31.226Z)
Latitude-0.00005°
Longitude12.4758°
Altitude443.795 km
Speed7.648 km/s
True Right ascension13h 31m 24s
True Declination0° 00' 00"
Sunlit
Object was in daylight at TLE epoch
Visualization TLE readout
Latitude12.59013°
Longitude174.7928°
Altitude443.559 km
Speed7.649 km/s
Apparent Right ascension03h 27m 50s
Apparent Declination-33° 39' 45"
Sunlit
Object is in daylight
Visualization observer readout
Local Sidereal Time21:59:04
Azimuth121.112° SE
Elevation-15.603°
Doppler factor1
Orbital elements
Apogee altitude447.346 km
Perigee altitude444.603 km
Semi-major axis6,824.112 km
Eccentricity0.000201
Inclination43.0004°
RAAN202.8521°
Arg. of periapsis269.9823°
True anomaly90.10333°
Mean anomaly90.0803°
Eccentric anomaly90.09182°
Mean motion3.85012 °/min
BSTAR0.000045082
Orbital period93.5 mins
Loading maneuver chart data...
Loading historical data...
Loading historical data...
Loading historical data...
Loading historical data...
Loading historical data...
Loading historical data...
Loading historical data...

STARLINK-32486 Visibility forecast

Observer location: undefined°, undefined

Span
Click to sort rows by Start time (UTC) header in descending order
Start Az.
Max El. time (UTC)
Max El. Az.
Max El.
End time (UTC)
End Az.
6 mins2024-12-27 16:46:53.106Z221.579° SW2024-12-27 16:49:53.106Z149.71° SSE33.463°2024-12-27 16:52:53.106Z82.362° E
5 mins2024-12-27 18:25:53.106Z274.287° WNW2024-12-27 18:27:53.106Z352.305° N41.161°2024-12-27 18:30:53.106Z69.105° E
5 mins2024-12-27 20:03:53.106Z294.316° NW2024-12-27 20:05:53.106Z345.207° N37.88°2024-12-27 20:08:53.106Z81.911° E
5 mins2024-12-27 21:41:53.106Z280.315° WNW2024-12-27 21:43:53.106Z240.576° WSW39.102°2024-12-27 21:46:53.106Z126.691° SE
|